Regional Weather Roundup
Issued by NWS

Home | Current Version | Previous Version | Text Only | Print | Product List | Glossary Off
Versions: 1 2 3 4 5 6 7 8 9 10 11 12 13 14 15 16 17 18 19 20 21 22 23 24 25 26 27 28 29 30 31 32 33 34 35 36 37 38 39 40 41 42 43 44 45 46 47 48 49 50

000
ASUS43 KLMK 210402
RWRKY
KENTUCKY REGIONAL WEATHER ROUNDUP
NATIONAL WEATHER SERVICE LOUISVILLE KY
1200 AM EDT SAT OCT 21 2017

NOTE "FAIR" INDICATES FEW OR NO CLOUDS BELOW 12,000 FEET
WITH NO SIGNIFICANT WEATHER AND/OR OBSTRUCTIONS TO VISIBILITY.

KYZ001>023-026-027-061>063-070>075-210500-
WESTERN AND SOUTH CENTRAL KENTUCKY

CITY           SKY/WX    TMP DP  RH WIND       PRES   REMARKS
PADUCAH        CLOUDY    59  49  69 SE5       30.11F
HENDERSON      CLOUDY    58  49  72 SE5       30.15S
OWENSBORO      MOCLDY    58  50  75 CALM      30.17R
HOPKINSVILLE   PTCLDY    58  49  69 SE5       30.16S
BOWLING GREEN  MOCLDY    55  53  93 CALM      30.17F
GLASGOW        NOT AVBL
$$

KYZ024-025-028>034-038-045-046-053-210500-
NORTH CENTRAL KENTUCKY

CITY           SKY/WX    TMP DP  RH WIND       PRES   REMARKS
LOUISVILLE/SDF PTCLDY    62  52  69 CALM      30.17F
LOUISVILLE/LOU MOCLDY    60  53  77 CALM      30.18F
FORT KNOX      PTCLDY    54  51  90 CALM      30.17R
$$

KYZ035>037-039>044-047>052-055>060-089>105-210500-
NORTHEAST KENTUCKY

CITY           SKY/WX    TMP DP  RH WIND       PRES   REMARKS
LEXINGTON      CLOUDY    55  49  80 SE5       30.21S
COVINGTON      PTCLDY    60  53  77 CALM      30.19F
FRANKFORT      CLOUDY    54  48  80 CALM      30.19S
$$

KYZ054-064>069-076>088-106>120-210500-
SOUTHEAST KENTUCKY

CITY           SKY/WX    TMP DP  RH WIND       PRES   REMARKS
JACKSON        CLEAR     60  51  72 CALM      30.23F
LONDON         CLOUDY    52  49  89 CALM      30.23S
SOMERSET       NOT AVBL
MIDDLESBORO    CLEAR     48  48 100 CALM      30.26S
MONTICELLO     CLOUDY    47  46  97 VRB6      30.23S
$$





USA.gov is the U.S. government's official web portal to all federal, state and local government web resources and services.